KLM777 EHAM-TNCM

Flight info

Callsign KLM777
Flight time N/A
Altitude 34000
Route IDRID L980 MANGO DCT ENHAQ DCT GAJIT DCT BAPHU DCT LESLU/M083F340 DCT MAPAG DCT GIPER DCT DINIM DCT 51N020W 49N030W 43N040W/M083F360 34N050W/M083F380 27N056W 22N060W DCT OBIKE/N0480F380 L335 TRNKY ULUBA1
Aircraft B77W/H-SDE1E2E3FGHIJ2J3J4J5M1RWXY/LB1D1

Departure

Time 2026-04-18 10:36
Airport Amsterdam Airport Schiphol (EHAM)

Arrival

Time N/A
Airport Princess Juliana International Airport (TNCM)
Time Latitude Longitude Altitude Speed Heading
2026-04-18 09:58 52.31164 4.76786 5 ft 0 kts 303°
2026-04-18 10:25 52.31158 4.76799 4 ft 4 kts 303°
2026-04-18 10:25 52.31143 4.76836 6 ft 4 kts 309°
2026-04-18 10:26 52.31126 4.76868 6 ft 4 kts 317°
2026-04-18 10:26 52.31109 4.76889 6 ft 4 kts 348°
2026-04-18 10:26 52.31104 4.76892 6 ft 1 kts 33°
2026-04-18 10:26 52.31115 4.76903 6 ft 4 kts 33°
2026-04-18 10:27 52.31137 4.76928 4 ft 4 kts 33°
2026-04-18 10:27 52.31143 4.76934 4 ft 0 kts 33°
2026-04-18 10:27 52.31140 4.76931 4 ft 2 kts 33°
2026-04-18 10:28 52.31119 4.76908 5 ft 4 kts 33°
2026-04-18 10:28 52.31093 4.76880 7 ft 4 kts 33°
2026-04-18 10:28 52.31079 4.76865 6 ft 0 kts 33°
2026-04-18 10:31 52.31080 4.76867 6 ft 2 kts 37°
2026-04-18 10:31 52.31086 4.76989 4 ft 17 kts 94°
2026-04-18 10:31 52.31077 4.77183 4 ft 17 kts 94°
2026-04-18 10:31 52.31069 4.77382 4 ft 17 kts 93°
2026-04-18 10:32 52.30987 4.77481 4 ft 17 kts 183°
2026-04-18 10:32 52.30866 4.77470 4 ft 17 kts 183°
2026-04-18 10:32 52.30745 4.77460 4 ft 17 kts 182°
2026-04-18 10:32 52.30628 4.77492 4 ft 17 kts 152°
2026-04-18 10:33 52.30568 4.77543 4 ft 0 kts 152°
2026-04-18 10:35 52.30552 4.77557 4 ft 9 kts 152°
2026-04-18 10:35 52.30488 4.77612 3 ft 12 kts 152°
2026-04-18 10:35 52.30409 4.77614 3 ft 13 kts 225°
2026-04-18 10:35 52.30314 4.77375 2 ft 58 kts 238°
2026-04-18 10:36 52.29913 4.76332 1 ft 157 kts 238°
2026-04-18 10:36 52.29207 4.74476 487 ft 211 kts 239°
2026-04-18 10:36 52.28428 4.72393 2020 ft 208 kts 237°
2026-04-18 10:36 52.27619 4.70383 3322 ft 215 kts 233°
2026-04-18 10:37 52.26613 4.68553 4178 ft 222 kts 225°
2026-04-18 10:37 52.25466 4.66731 4877 ft 235 kts 224°
2026-04-18 10:37 52.24325 4.64756 5387 ft 245 kts 239°
2026-04-18 10:37 52.23709 4.62128 5949 ft 253 kts 252°
2026-04-18 10:38 52.23173 4.59355 6703 ft 258 kts 250°
2026-04-18 10:38 52.22599 4.56576 7554 ft 259 kts 250°
2026-04-18 10:38 52.22018 4.53790 8430 ft 260 kts 250°
2026-04-18 10:38 52.21429 4.50988 9282 ft 264 kts 250°
2026-04-18 10:39 52.20831 4.48139 10139 ft 266 kts 250°
2026-04-18 10:39 52.20223 4.45249 10791 ft 276 kts 250°
2026-04-18 10:39 52.19570 4.42156 10985 ft 301 kts 250°
2026-04-18 10:39 52.18860 4.38805 11183 ft 325 kts 250°
2026-04-18 10:40 52.18094 4.35194 11487 ft 346 kts 250°
2026-04-18 10:40 52.17300 4.31444 12154 ft 355 kts 250°
2026-04-18 10:40 52.16487 4.27608 12940 ft 361 kts 250°
2026-04-18 10:40 52.15943 4.25039 13513 ft 363 kts 250°
2026-04-18 10:41 52.14858 4.19936 14592 ft 368 kts 250°
2026-04-18 10:41 52.14017 4.15991 15372 ft 371 kts 250°
2026-04-18 10:41 52.13164 4.11998 16157 ft 375 kts 250°
2026-04-18 10:41 52.12300 4.07966 16932 ft 379 kts 250°
2026-04-18 10:42 52.11721 4.05269 17441 ft 382 kts 250°
2026-04-18 10:42 52.10553 3.99833 18445 ft 387 kts 250°
2026-04-18 10:42 52.09663 3.95687 19109 ft 390 kts 250°
2026-04-18 10:42 52.08762 3.91501 19813 ft 393 kts 250°
2026-04-18 10:43 52.07853 3.87298 20496 ft 395 kts 250°
2026-04-18 10:43 52.06936 3.83072 21176 ft 398 kts 250°
2026-04-18 10:43 52.06312 3.80205 21637 ft 400 kts 250°
2026-04-18 10:43 52.05075 3.74537 22470 ft 404 kts 250°
2026-04-18 10:44 52.04491 3.71866 22851 ft 406 kts 250°
2026-04-18 10:44 52.03539 3.67525 23471 ft 409 kts 250°
2026-04-18 10:44 52.02583 3.63158 24042 ft 412 kts 250°
2026-04-18 10:44 52.01619 3.58762 24556 ft 415 kts 250°
2026-04-18 10:45 52.00646 3.54347 25078 ft 417 kts 250°
2026-04-18 10:45 51.99630 3.49929 25586 ft 419 kts 246°
2026-04-18 10:45 51.98149 3.45855 26045 ft 422 kts 234°
2026-04-18 10:45 51.96350 3.42072 26514 ft 425 kts 233°
2026-04-18 10:46 51.94535 3.38267 26949 ft 428 kts 234°
2026-04-18 10:46 51.92736 3.34416 27399 ft 430 kts 234°
2026-04-18 10:46 51.90949 3.30508 27849 ft 432 kts 235°
2026-04-18 10:46 51.89163 3.26571 28272 ft 435 kts 235°
2026-04-18 10:47 51.87406 3.22582 28654 ft 436 kts 239°
2026-04-18 10:47 51.86013 3.18208 28977 ft 439 kts 248°
2026-04-18 10:47 51.84996 3.13620 29351 ft 440 kts 253°
2026-04-18 10:47 51.84269 3.08737 29702 ft 443 kts 261°
2026-04-18 10:48 51.83935 3.03844 30073 ft 444 kts 263°
2026-04-18 10:48 51.83654 2.98880 30507 ft 443 kts 264°
2026-04-18 10:48 51.83370 2.93931 30942 ft 441 kts 263°
2026-04-18 10:48 51.83071 2.89006 31319 ft 440 kts 263°
2026-04-18 10:49 51.82758 2.84078 31680 ft 440 kts 263°
2026-04-18 10:49 51.82436 2.79178 32056 ft 439 kts 263°
2026-04-18 10:49 51.82109 2.74276 32404 ft 438 kts 263°
2026-04-18 10:49 51.81780 2.69386 32760 ft 437 kts 263°
2026-04-18 10:50 51.81451 2.64503 33117 ft 437 kts 263°
2026-04-18 10:50 51.81117 2.59632 33456 ft 436 kts 263°
2026-04-18 10:50 51.80782 2.54766 33786 ft 435 kts 263°
2026-04-18 10:50 51.80447 2.49912 34107 ft 435 kts 263°
2026-04-18 10:51 51.80107 2.45043 34173 ft 438 kts 263°
2026-04-18 10:51 51.79416 2.35242 34203 ft 438 kts 263°
2026-04-18 10:52 51.78727 2.25549 34226 ft 433 kts 263°
2026-04-18 10:52 51.78085 2.15898 34214 ft 432 kts 264°
2026-04-18 10:53 51.77535 2.06242 34221 ft 432 kts 264°
2026-04-18 10:53 51.76974 1.96573 34213 ft 433 kts 264°
2026-04-18 10:54 51.76396 1.86963 34226 ft 434 kts 264°
2026-04-18 10:54 51.75800 1.77253 34226 ft 435 kts 264°
2026-04-18 10:55 51.75198 1.67540 34232 ft 435 kts 264°
2026-04-18 10:55 51.74585 1.57819 34219 ft 436 kts 263°
2026-04-18 10:56 51.73952 1.48087 34224 ft 435 kts 263°
2026-04-18 10:56 51.73316 1.38374 34214 ft 435 kts 263°
2026-04-18 10:57 51.72673 1.28669 34223 ft 435 kts 263°
2026-04-18 10:57 51.72024 1.18972 34215 ft 435 kts 263°
2026-04-18 10:58 51.71372 1.09345 34220 ft 434 kts 263°
2026-04-18 10:58 51.70721 0.99679 34208 ft 434 kts 263°
2026-04-18 10:59 51.70063 0.90010 34217 ft 434 kts 263°
2026-04-18 10:59 51.69386 0.80353 34212 ft 433 kts 263°
2026-04-18 11:00 51.68493 0.70763 34215 ft 432 kts 260°
2026-04-18 11:00 51.67476 0.61220 34207 ft 432 kts 259°
2026-04-18 11:01 51.66456 0.51698 34215 ft 432 kts 259°
2026-04-18 11:01 51.65441 0.42174 34210 ft 431 kts 259°
2026-04-18 11:02 51.63911 0.27912 34230 ft 431 kts 259°
2026-04-18 11:02 51.62887 0.18425 34232 ft 430 kts 259°
2026-04-18 11:03 51.61856 0.08941 34240 ft 430 kts 259°
2026-04-18 11:03 51.60818 -0.00527 34232 ft 429 kts 258°
2026-04-18 11:04 51.59775 -0.09969 34237 ft 429 kts 258°
2026-04-18 11:04 51.58723 -0.19408 34180 ft 430 kts 258°
2026-04-18 11:05 51.57647 -0.28979 34251 ft 440 kts 258°
2026-04-18 11:05 51.56549 -0.38679 34249 ft 442 kts 258°
2026-04-18 11:06 51.55450 -0.48333 34238 ft 441 kts 258°
2026-04-18 11:06 51.54339 -0.58007 34239 ft 439 kts 257°
2026-04-18 11:07 51.53226 -0.67617 34238 ft 436 kts 257°
2026-04-18 11:07 51.52112 -0.77166 34228 ft 434 kts 257°
2026-04-18 11:08 51.50995 -0.86669 34247 ft 432 kts 257°
2026-04-18 11:08 51.49873 -0.96150 34240 ft 432 kts 257°
2026-04-18 11:09 51.48745 -1.05604 34243 ft 432 kts 257°
2026-04-18 11:09 51.47608 -1.15074 34246 ft 432 kts 257°
2026-04-18 11:10 51.46462 -1.24546 34243 ft 433 kts 256°
2026-04-18 11:10 51.45308 -1.34013 34245 ft 433 kts 256°
2026-04-18 11:11 51.44145 -1.43494 34240 ft 433 kts 256°
2026-04-18 11:11 51.42985 -1.52888 34250 ft 433 kts 256°
2026-04-18 11:12 51.41808 -1.62358 34244 ft 433 kts 256°
2026-04-18 11:12 51.40573 -1.71785 34251 ft 431 kts 253°
2026-04-18 11:13 51.38662 -1.80859 34247 ft 430 kts 248°
2026-04-18 11:13 51.36649 -1.89861 34254 ft 430 kts 249°
2026-04-18 11:14 51.34743 -1.98925 34252 ft 430 kts 252°
2026-04-18 11:14 51.33620 -2.08360 34263 ft 433 kts 259°
2026-04-18 11:15 51.32805 -2.17894 34261 ft 433 kts 258°
2026-04-18 11:15 51.31962 -2.27434 34256 ft 433 kts 258°
2026-04-18 11:16 51.31105 -2.36945 34269 ft 433 kts 258°
2026-04-18 11:16 51.30237 -2.46475 34272 ft 433 kts 258°
2026-04-18 11:17 51.29361 -2.56005 34264 ft 434 kts 258°
2026-04-18 11:17 51.28477 -2.65530 34272 ft 434 kts 258°
2026-04-18 11:18 51.27586 -2.75057 34271 ft 434 kts 257°
2026-04-18 11:18 51.26686 -2.84587 34280 ft 434 kts 257°
2026-04-18 11:19 51.25779 -2.94110 34273 ft 434 kts 257°
2026-04-18 11:19 51.24865 -3.03616 34277 ft 433 kts 257°
2026-04-18 11:20 51.23945 -3.13106 34277 ft 432 kts 257°
2026-04-18 11:20 51.23024 -3.22524 34278 ft 432 kts 257°
2026-04-18 11:21 51.22091 -3.31979 34272 ft 431 kts 257°
2026-04-18 11:21 51.21151 -3.41425 34285 ft 431 kts 257°
2026-04-18 11:22 51.20205 -3.50861 34280 ft 431 kts 257°
2026-04-18 11:22 51.19251 -3.60295 34283 ft 431 kts 257°
2026-04-18 11:23 51.18291 -3.69720 34296 ft 431 kts 256°
2026-04-18 11:23 51.17638 -3.79239 34302 ft 435 kts 263°
2026-04-18 11:24 51.17438 -3.88877 34312 ft 435 kts 263°
2026-04-18 11:24 51.17208 -3.98524 34317 ft 436 kts 263°
2026-04-18 11:25 51.16957 -4.08183 34317 ft 436 kts 263°
2026-04-18 11:25 51.16696 -4.17846 34303 ft 437 kts 262°
2026-04-18 11:26 51.16428 -4.27512 34308 ft 436 kts 262°
2026-04-18 11:26 51.16152 -4.37156 34311 ft 436 kts 262°
2026-04-18 11:27 51.15869 -4.46803 34312 ft 435 kts 262°
2026-04-18 11:27 51.15580 -4.56368 34320 ft 435 kts 262°
2026-04-18 11:28 51.15282 -4.65981 34320 ft 435 kts 262°
2026-04-18 11:28 51.14976 -4.75588 34500 ft 435 kts 264°
2026-04-18 11:29 51.14657 -4.85306 34386 ft 443 kts 265°
2026-04-18 11:29 51.14329 -4.95124 34323 ft 443 kts 265°
2026-04-18 11:30 51.13995 -5.04906 34319 ft 442 kts 265°
2026-04-18 11:30 51.13653 -5.14650 34318 ft 440 kts 265°
2026-04-18 11:31 51.13362 -5.22739 34321 ft 440 kts 265°
2026-04-18 11:31 51.12940 -5.34104 34327 ft 440 kts 265°
2026-04-18 11:32 51.12635 -5.42208 34329 ft 441 kts 265°
2026-04-18 11:32 51.12262 -5.51960 34327 ft 442 kts 265°
2026-04-18 11:33 51.11880 -5.61750 34326 ft 443 kts 265°
2026-04-18 11:33 51.11488 -5.71548 34329 ft 444 kts 265°
2026-04-18 11:34 51.11087 -5.81371 34332 ft 445 kts 265°
2026-04-18 11:34 51.10677 -5.91191 34328 ft 445 kts 265°
2026-04-18 11:35 51.10260 -6.01013 34330 ft 445 kts 265°
2026-04-18 11:35 51.09836 -6.10771 34331 ft 445 kts 265°
2026-04-18 11:36 51.09402 -6.20593 34331 ft 445 kts 265°
2026-04-18 11:36 51.08959 -6.30416 34332 ft 445 kts 265°
2026-04-18 11:37 51.08507 -6.40244 34336 ft 445 kts 265°
2026-04-18 11:37 51.08051 -6.50066 34338 ft 445 kts 265°
2026-04-18 11:38 51.07584 -6.59892 34338 ft 445 kts 265°
2026-04-18 11:38 51.07106 -6.69712 34339 ft 446 kts 265°
2026-04-18 11:39 51.06620 -6.79541 34342 ft 446 kts 265°
2026-04-18 11:39 51.06126 -6.89377 34343 ft 446 kts 265°
2026-04-18 11:40 51.05624 -6.99211 34346 ft 447 kts 265°
2026-04-18 11:40 51.05113 -7.09061 34345 ft 447 kts 265°
2026-04-18 11:41 51.04594 -7.18901 34347 ft 447 kts 265°
2026-04-18 11:41 51.04066 -7.28751 34349 ft 447 kts 265°
2026-04-18 11:42 51.03533 -7.38538 34350 ft 448 kts 265°
2026-04-18 11:42 51.02989 -7.48390 34354 ft 448 kts 265°
2026-04-18 11:43 51.02435 -7.58243 34353 ft 448 kts 265°
2026-04-18 11:43 51.01873 -7.68110 34353 ft 448 kts 265°
2026-04-18 11:44 51.01304 -7.77962 34360 ft 448 kts 265°
2026-04-18 11:44 51.00726 -7.87827 34360 ft 449 kts 265°
2026-04-18 11:45 51.00140 -7.97684 34358 ft 449 kts 265°
2026-04-18 11:45 50.99970 -8.07568 34364 ft 448 kts 270°
2026-04-18 11:46 51.00012 -8.17472 34358 ft 449 kts 270°
2026-04-18 11:46 51.00026 -8.27382 34362 ft 449 kts 270°
2026-04-18 11:47 51.00020 -8.37295 34363 ft 449 kts 270°
2026-04-18 11:47 51.00006 -8.47215 34362 ft 450 kts 270°
2026-04-18 11:48 51.00051 -8.57145 34363 ft 450 kts 271°
2026-04-18 11:48 51.00207 -8.67068 34367 ft 450 kts 271°
2026-04-18 11:49 51.00361 -8.76995 34369 ft 450 kts 271°
2026-04-18 11:49 51.00492 -8.86936 34370 ft 450 kts 271°
2026-04-18 11:50 51.00605 -8.96811 34368 ft 450 kts 271°
2026-04-18 11:50 51.00709 -9.06763 34370 ft 451 kts 271°
2026-04-18 11:51 51.00805 -9.16713 34373 ft 451 kts 271°
2026-04-18 11:51 51.00892 -9.26678 34373 ft 451 kts 271°
2026-04-18 11:52 51.00972 -9.36643 34378 ft 452 kts 271°
2026-04-18 11:52 51.01043 -9.46620 34379 ft 452 kts 271°
2026-04-18 11:53 51.01105 -9.56600 34376 ft 452 kts 271°
2026-04-18 11:53 51.01159 -9.66582 34381 ft 452 kts 271°
2026-04-18 11:54 51.01205 -9.76560 34381 ft 452 kts 271°
2026-04-18 11:54 51.01242 -9.86536 34384 ft 452 kts 271°
2026-04-18 11:55 51.01270 -9.96526 34382 ft 452 kts 271°
2026-04-18 11:55 51.01290 -10.06504 34382 ft 452 kts 271°
2026-04-18 11:56 51.01302 -10.16482 34384 ft 452 kts 271°
2026-04-18 11:56 51.01305 -10.26428 34390 ft 454 kts 271°
2026-04-18 11:57 51.01299 -10.36480 34393 ft 457 kts 271°
2026-04-18 11:57 51.01285 -10.46588 34397 ft 459 kts 271°
2026-04-18 11:58 51.01262 -10.56736 34395 ft 460 kts 271°
2026-04-18 11:58 51.01230 -10.66926 34393 ft 461 kts 271°
2026-04-18 11:59 51.01189 -10.77120 34397 ft 462 kts 271°
2026-04-18 11:59 51.01139 -10.87311 34398 ft 461 kts 271°
2026-04-18 12:00 51.01081 -10.97494 34400 ft 461 kts 271°
2026-04-18 12:00 51.01013 -11.07667 34397 ft 460 kts 271°
2026-04-18 12:01 51.00897 -11.22836 34400 ft 460 kts 271°
2026-04-18 12:02 51.00807 -11.33000 34400 ft 461 kts 271°
2026-04-18 12:02 51.00709 -11.43177 34400 ft 461 kts 271°
2026-04-18 12:03 51.00602 -11.53359 34399 ft 462 kts 271°
2026-04-18 12:03 51.00486 -11.63558 34399 ft 462 kts 271°
2026-04-18 12:04 51.00361 -11.73761 34405 ft 462 kts 271°
2026-04-18 12:04 51.00227 -11.83969 34405 ft 463 kts 271°
2026-04-18 12:05 51.00086 -11.94202 34400 ft 464 kts 271°
2026-04-18 12:05 50.99972 -12.04443 34402 ft 464 kts 272°
2026-04-18 12:06 51.00096 -12.14680 34406 ft 464 kts 274°
2026-04-18 12:06 51.00264 -12.24931 34408 ft 464 kts 274°
2026-04-18 12:07 51.00395 -12.35190 34407 ft 465 kts 273°
2026-04-18 12:07 51.00496 -12.45464 34407 ft 465 kts 273°
2026-04-18 12:08 51.00581 -12.55730 34407 ft 466 kts 273°
2026-04-18 12:08 51.00657 -12.65949 34406 ft 466 kts 273°
2026-04-18 12:09 51.00726 -12.76237 34407 ft 466 kts 273°
2026-04-18 12:09 51.00786 -12.86529 34408 ft 466 kts 273°
2026-04-18 12:10 51.00838 -12.96837 34407 ft 467 kts 273°
2026-04-18 12:10 51.00880 -13.07153 34408 ft 467 kts 273°
2026-04-18 12:11 51.00913 -13.17470 34405 ft 468 kts 273°
2026-04-18 12:11 51.00937 -13.27791 34418 ft 468 kts 273°
2026-04-18 12:12 51.00952 -13.38134 34404 ft 468 kts 273°
2026-04-18 12:12 51.00958 -13.48476 34408 ft 469 kts 273°
2026-04-18 12:13 51.00955 -13.58827 34412 ft 469 kts 273°
2026-04-18 12:13 51.00942 -13.69194 34407 ft 469 kts 273°
2026-04-18 12:14 51.00921 -13.79559 34402 ft 470 kts 273°
2026-04-18 12:14 51.00890 -13.89931 34418 ft 470 kts 273°
2026-04-18 12:15 51.00850 -14.00313 34416 ft 470 kts 273°
2026-04-18 12:15 51.00801 -14.10693 34415 ft 470 kts 273°
2026-04-18 12:16 51.00743 -14.21079 34404 ft 471 kts 273°
2026-04-18 12:16 51.00675 -14.31472 34417 ft 471 kts 273°
2026-04-18 12:17 51.00599 -14.41816 34408 ft 471 kts 273°
2026-04-18 12:17 51.00512 -14.52221 34413 ft 472 kts 273°
2026-04-18 12:18 51.00417 -14.62637 34411 ft 472 kts 273°
2026-04-18 12:18 51.00313 -14.73046 34407 ft 472 kts 272°
2026-04-18 12:19 51.00199 -14.83464 34413 ft 472 kts 272°
2026-04-18 12:19 51.00077 -14.93896 34404 ft 472 kts 272°
2026-04-18 12:20 51.00020 -15.02550 34402 ft 470 kts 275°
2026-04-18 12:20 51.00213 -15.12929 34406 ft 470 kts 276°
2026-04-18 12:21 51.00451 -15.23305 34405 ft 470 kts 276°
2026-04-18 12:21 51.00666 -15.33683 34405 ft 470 kts 276°
2026-04-18 12:22 51.00858 -15.44064 34408 ft 470 kts 275°
2026-04-18 12:22 51.01035 -15.54443 34405 ft 470 kts 275°
2026-04-18 12:23 51.01203 -15.64825 34403 ft 470 kts 275°
2026-04-18 12:23 51.01361 -15.75198 34398 ft 470 kts 275°
2026-04-18 12:24 51.01512 -15.85589 34399 ft 470 kts 275°
2026-04-18 12:24 51.01653 -15.95971 34399 ft 470 kts 275°
2026-04-18 12:25 51.01785 -16.06353 34401 ft 470 kts 275°
2026-04-18 12:25 51.01908 -16.16738 34404 ft 470 kts 275°
2026-04-18 12:26 51.02020 -16.27045 34402 ft 470 kts 275°
2026-04-18 12:26 51.02125 -16.37496 34394 ft 470 kts 275°
2026-04-18 12:27 51.02220 -16.47801 34402 ft 470 kts 275°
2026-04-18 12:27 51.02306 -16.58174 34395 ft 470 kts 275°
2026-04-18 12:28 51.02383 -16.68615 34398 ft 470 kts 274°
2026-04-18 12:28 51.02450 -16.78983 34400 ft 469 kts 274°
2026-04-18 12:29 51.02509 -16.89358 34392 ft 469 kts 274°
2026-04-18 12:29 51.02558 -16.99731 34396 ft 470 kts 274°
2026-04-18 12:30 51.02597 -17.10033 34388 ft 470 kts 274°
2026-04-18 12:30 51.02628 -17.20402 34393 ft 470 kts 274°
2026-04-18 12:31 51.02650 -17.30776 34384 ft 470 kts 274°
2026-04-18 12:31 51.02662 -17.41160 34391 ft 470 kts 274°
2026-04-18 12:32 51.02665 -17.51537 34384 ft 470 kts 273°
2026-04-18 12:32 51.02659 -17.61913 34393 ft 470 kts 273°
2026-04-18 12:33 51.02644 -17.72296 34390 ft 470 kts 273°
2026-04-18 12:33 51.02620 -17.82678 34384 ft 470 kts 273°
2026-04-18 12:34 51.02586 -17.93063 34384 ft 470 kts 273°
2026-04-18 12:34 51.02544 -18.03447 34382 ft 470 kts 273°
2026-04-18 12:35 51.02492 -18.13822 34380 ft 470 kts 273°
2026-04-18 12:35 51.02431 -18.24201 34380 ft 470 kts 272°
2026-04-18 12:36 51.02360 -18.34569 34383 ft 470 kts 272°
2026-04-18 12:36 51.02281 -18.44933 34379 ft 469 kts 272°
2026-04-18 12:37 51.02192 -18.55303 34380 ft 469 kts 272°
2026-04-18 12:37 51.02095 -18.65599 34382 ft 469 kts 272°
2026-04-18 12:38 51.01988 -18.75958 34378 ft 469 kts 272°
2026-04-18 12:38 51.01873 -18.86306 34375 ft 469 kts 272°
2026-04-18 12:39 51.01748 -18.96668 34441 ft 470 kts 272°
2026-04-18 12:39 51.01682 -19.01862 34653 ft 470 kts 272°
2026-04-18 12:39 51.01613 -19.07036 34916 ft 468 kts 271°
2026-04-18 12:39 51.01543 -19.12202 35163 ft 467 kts 271°
2026-04-18 12:40 51.01470 -19.17345 35370 ft 467 kts 271°
2026-04-18 12:40 51.01396 -19.22502 35560 ft 467 kts 271°
2026-04-18 12:40 51.01319 -19.27652 35766 ft 466 kts 271°
2026-04-18 12:40 51.01240 -19.32791 36051 ft 464 kts 271°
2026-04-18 12:41 51.01159 -19.37883 36400 ft 461 kts 271°
2026-04-18 12:41 51.00991 -19.48148 36366 ft 467 kts 271°
2026-04-18 12:42 51.00812 -19.58463 36365 ft 467 kts 270°
2026-04-18 12:42 51.00624 -19.68756 36363 ft 466 kts 270°
2026-04-18 12:43 51.00427 -19.79028 36360 ft 465 kts 270°
2026-04-18 12:43 51.00224 -19.89282 36355 ft 464 kts 270°
2026-04-18 12:44 50.99901 -19.99519 36356 ft 465 kts 265°
2026-04-18 12:44 50.98638 -20.09533 36363 ft 467 kts 259°
2026-04-18 12:45 50.97076 -20.19530 36358 ft 467 kts 259°
2026-04-18 12:45 50.95521 -20.29547 36353 ft 467 kts 259°
2026-04-18 12:46 50.93977 -20.39563 36348 ft 467 kts 259°
2026-04-18 12:46 50.92434 -20.49574 36347 ft 467 kts 259°
2026-04-18 12:47 50.90883 -20.59581 36349 ft 467 kts 259°
2026-04-18 12:47 50.89322 -20.69578 36347 ft 467 kts 258°
2026-04-18 12:48 50.87753 -20.79569 36347 ft 467 kts 258°
2026-04-18 12:48 50.86177 -20.89534 36340 ft 467 kts 258°
2026-04-18 12:49 50.84592 -20.99505 36335 ft 467 kts 258°
2026-04-18 12:49 50.82999 -21.09461 36346 ft 467 kts 258°
2026-04-18 12:50 50.81398 -21.19407 36343 ft 466 kts 258°
2026-04-18 12:50 50.79791 -21.29331 36332 ft 466 kts 258°
2026-04-18 12:51 50.78185 -21.39190 36340 ft 466 kts 258°
2026-04-18 12:51 50.76564 -21.49087 36331 ft 465 kts 258°
2026-04-18 12:52 50.74934 -21.58977 36329 ft 465 kts 258°
2026-04-18 12:52 50.73297 -21.68851 36332 ft 465 kts 258°
2026-04-18 12:53 50.71653 -21.78712 36326 ft 464 kts 257°
2026-04-18 12:53 50.70001 -21.88564 36322 ft 464 kts 257°
2026-04-18 12:54 50.68342 -21.98403 36320 ft 464 kts 257°
2026-04-18 12:54 50.66674 -22.08238 36319 ft 464 kts 257°
2026-04-18 12:55 50.64998 -22.18064 36321 ft 464 kts 257°
2026-04-18 12:55 50.63314 -22.27881 36318 ft 464 kts 257°
2026-04-18 12:56 50.61622 -22.37693 36317 ft 464 kts 257°
2026-04-18 12:56 50.59933 -22.47432 36312 ft 464 kts 257°
2026-04-18 12:57 50.58225 -22.57226 36312 ft 464 kts 257°
2026-04-18 12:57 50.56511 -22.66999 36308 ft 464 kts 257°
2026-04-18 12:58 50.54787 -22.76774 36307 ft 463 kts 257°
2026-04-18 12:58 50.53059 -22.86520 36305 ft 463 kts 256°
2026-04-18 12:59 50.51322 -22.96261 36302 ft 463 kts 256°
2026-04-18 12:59 50.49579 -23.05988 36298 ft 462 kts 256°
2026-04-18 13:00 50.47828 -23.15703 36297 ft 462 kts 256°
2026-04-18 13:00 50.46070 -23.25407 36294 ft 462 kts 256°
2026-04-18 13:01 50.44304 -23.35104 36289 ft 462 kts 256°
2026-04-18 13:01 50.42531 -23.44788 36286 ft 462 kts 256°
2026-04-18 13:02 50.40750 -23.54463 36283 ft 462 kts 256°
2026-04-18 13:02 50.38960 -23.64137 36280 ft 462 kts 256°
2026-04-18 13:03 50.37164 -23.73793 36277 ft 462 kts 256°
2026-04-18 13:03 50.34453 -23.88272 36272 ft 462 kts 256°
2026-04-18 13:04 50.32650 -23.97842 36269 ft 461 kts 255°
2026-04-18 13:04 50.30827 -24.07471 36269 ft 462 kts 255°
2026-04-18 13:05 50.28996 -24.17087 36260 ft 461 kts 255°
2026-04-18 13:05 50.27156 -24.26702 36259 ft 461 kts 255°
2026-04-18 13:06 50.25308 -24.36311 36258 ft 461 kts 255°
2026-04-18 13:06 50.23456 -24.45898 36248 ft 461 kts 255°
2026-04-18 13:07 50.21593 -24.55485 36247 ft 461 kts 255°
2026-04-18 13:07 50.20029 -24.63501 36248 ft 461 kts 255°
2026-04-18 13:08 50.18153 -24.73068 36242 ft 461 kts 255°
2026-04-18 13:08 50.16270 -24.82629 36243 ft 461 kts 255°
2026-04-18 13:09 50.14379 -24.92179 36236 ft 461 kts 255°
2026-04-18 13:09 50.12493 -25.01654 36232 ft 461 kts 255°
2026-04-18 13:10 50.10587 -25.11187 36225 ft 461 kts 255°
2026-04-18 13:10 50.08674 -25.20710 36221 ft 460 kts 254°
2026-04-18 13:11 50.06752 -25.30229 36221 ft 460 kts 254°
2026-04-18 13:11 50.04827 -25.39719 36218 ft 460 kts 254°
2026-04-18 13:12 50.02892 -25.49209 36216 ft 460 kts 254°
2026-04-18 13:12 50.00949 -25.58695 36213 ft 460 kts 254°
2026-04-18 13:13 49.99000 -25.68164 36209 ft 460 kts 254°
2026-04-18 13:13 49.97046 -25.77613 36207 ft 460 kts 254°
2026-04-18 13:14 49.95082 -25.87064 36204 ft 460 kts 253°
2026-04-18 13:14 49.93124 -25.96441 36197 ft 460 kts 253°
2026-04-18 13:15 49.91146 -26.05876 36195 ft 460 kts 253°
2026-04-18 13:15 49.89160 -26.15298 36193 ft 459 kts 253°
2026-04-18 13:16 49.87155 -26.24770 36188 ft 459 kts 253°
2026-04-18 13:16 49.85168 -26.34113 36185 ft 459 kts 253°
2026-04-18 13:17 49.83162 -26.43496 36184 ft 459 kts 253°
2026-04-18 13:17 49.81150 -26.52871 36178 ft 458 kts 253°
2026-04-18 13:18 49.79134 -26.62221 36172 ft 458 kts 253°
2026-04-18 13:18 49.77112 -26.71554 36167 ft 457 kts 253°
2026-04-18 13:19 49.75085 -26.80868 36168 ft 457 kts 253°
2026-04-18 13:19 49.73051 -26.90174 36158 ft 456 kts 252°
2026-04-18 13:20 49.71015 -26.99445 36157 ft 456 kts 252°
2026-04-18 13:20 49.68973 -27.08702 36154 ft 455 kts 252°
2026-04-18 13:21 49.66926 -27.17944 36149 ft 455 kts 252°
2026-04-18 13:21 49.64872 -27.27174 36147 ft 454 kts 252°
2026-04-18 13:22 49.62814 -27.36382 36141 ft 454 kts 252°
2026-04-18 13:22 49.60747 -27.45589 36137 ft 454 kts 252°
2026-04-18 13:23 49.58675 -27.54778 36130 ft 453 kts 252°
2026-04-18 13:23 49.56599 -27.63946 36125 ft 453 kts 252°
2026-04-18 13:24 49.54531 -27.73038 36120 ft 453 kts 251°
2026-04-18 13:24 49.52444 -27.82172 36116 ft 452 kts 251°
2026-04-18 13:25 49.50353 -27.91287 36113 ft 452 kts 251°
2026-04-18 13:25 49.48258 -28.00382 36104 ft 451 kts 251°
2026-04-18 13:26 49.46157 -28.09465 36106 ft 450 kts 251°
2026-04-18 13:26 49.44051 -28.18526 36099 ft 450 kts 251°
2026-04-18 13:27 49.41942 -28.27568 36095 ft 449 kts 251°
2026-04-18 13:27 49.39827 -28.36594 36093 ft 449 kts 250°
2026-04-18 13:28 49.37708 -28.45600 36087 ft 449 kts 250°
2026-04-18 13:28 49.35582 -28.54600 36082 ft 448 kts 250°
2026-04-18 13:29 49.33452 -28.63578 36078 ft 448 kts 250°
2026-04-18 13:29 49.31319 -28.72531 36076 ft 447 kts 250°
2026-04-18 13:30 49.29179 -28.81479 36072 ft 447 kts 250°
2026-04-18 13:30 49.27033 -28.90412 36066 ft 446 kts 250°
2026-04-18 13:31 49.24897 -28.99270 36065 ft 446 kts 250°
2026-04-18 13:31 49.22745 -29.08159 36056 ft 445 kts 250°
2026-04-18 13:32 49.20588 -29.17029 36053 ft 445 kts 249°
2026-04-18 13:32 49.18426 -29.25887 36046 ft 444 kts 249°
2026-04-18 13:33 49.16264 -29.34709 36045 ft 443 kts 249°
2026-04-18 13:33 49.14097 -29.43518 36037 ft 442 kts 249°
2026-04-18 13:34 49.11927 -29.52304 36032 ft 442 kts 249°
2026-04-18 13:34 49.09755 -29.61064 36026 ft 441 kts 249°
2026-04-18 13:35 49.07578 -29.69809 36021 ft 440 kts 249°
2026-04-18 13:35 49.05400 -29.78528 36017 ft 440 kts 249°
2026-04-18 13:36 49.03217 -29.87238 36011 ft 440 kts 249°
2026-04-18 13:36 49.00978 -29.95900 36008 ft 439 kts 245°
2026-04-18 13:37 48.97998 -30.04004 36010 ft 439 kts 237°
2026-04-18 13:37 48.94346 -30.11452 36006 ft 439 kts 233°
2026-04-18 13:38 48.90627 -30.18818 35996 ft 439 kts 233°
2026-04-18 13:38 48.86910 -30.26194 35992 ft 439 kts 233°
2026-04-18 13:39 48.83200 -30.33570 35990 ft 439 kts 233°
2026-04-18 13:39 48.79491 -30.40935 35985 ft 439 kts 233°
2026-04-18 13:40 48.75776 -30.48294 35979 ft 439 kts 233°
2026-04-18 13:40 48.72083 -30.55587 35975 ft 439 kts 233°
2026-04-18 13:41 48.68361 -30.62919 35977 ft 439 kts 233°
2026-04-18 13:41 48.64630 -30.70246 35973 ft 439 kts 233°
2026-04-18 13:42 48.60903 -30.77547 35969 ft 439 kts 233°
2026-04-18 13:42 48.57168 -30.84844 35965 ft 439 kts 233°
2026-04-18 13:43 48.53426 -30.92133 35965 ft 439 kts 233°
2026-04-18 13:43 48.49681 -30.99410 35961 ft 439 kts 233°
2026-04-18 13:44 48.45933 -31.06672 35956 ft 439 kts 233°
2026-04-18 13:44 48.42181 -31.13923 35952 ft 439 kts 233°
2026-04-18 13:45 48.38427 -31.21158 35952 ft 439 kts 232°
2026-04-18 13:45 48.34665 -31.28388 35947 ft 439 kts 232°
2026-04-18 13:46 48.30901 -31.35605 35945 ft 439 kts 232°
2026-04-18 13:46 48.27134 -31.42805 35942 ft 438 kts 232°
2026-04-18 13:47 48.23364 -31.49996 35938 ft 438 kts 232°
2026-04-18 13:47 48.19591 -31.57170 35940 ft 438 kts 232°
2026-04-18 13:48 48.15816 -31.64331 35935 ft 438 kts 232°
2026-04-18 13:48 48.12065 -31.71425 35933 ft 437 kts 232°
2026-04-18 13:49 48.08286 -31.78554 35930 ft 437 kts 232°
2026-04-18 13:49 48.04505 -31.85669 35926 ft 436 kts 232°
2026-04-18 13:50 48.00728 -31.92758 35922 ft 436 kts 232°
2026-04-18 13:50 47.96948 -31.99834 35920 ft 435 kts 232°
2026-04-18 13:51 47.93169 -32.06889 35920 ft 435 kts 232°
2026-04-18 13:51 47.89392 -32.13922 35919 ft 434 kts 232°
2026-04-18 13:52 47.85612 -32.20943 35915 ft 434 kts 232°
2026-04-18 13:52 47.81833 -32.27944 35915 ft 434 kts 232°
2026-04-18 13:53 47.78077 -32.34885 35911 ft 433 kts 232°
2026-04-18 13:53 47.74294 -32.41858 35909 ft 433 kts 232°
2026-04-18 13:54 47.70510 -32.48814 35906 ft 433 kts 232°
2026-04-18 13:54 47.66720 -32.55762 35900 ft 433 kts 232°
2026-04-18 13:55 47.62931 -32.62693 35901 ft 432 kts 232°
2026-04-18 13:55 47.59143 -32.69604 35897 ft 432 kts 232°
2026-04-18 13:56 47.55989 -32.75344 35898 ft 432 kts 231°
2026-04-18 13:56 47.52189 -32.82243 35890 ft 432 kts 231°
2026-04-18 13:57 47.48394 -32.89117 35887 ft 431 kts 231°
2026-04-18 13:57 47.44596 -32.95979 35891 ft 431 kts 231°
2026-04-18 13:58 47.40795 -33.02828 35882 ft 431 kts 231°
2026-04-18 13:58 47.36993 -33.09664 35882 ft 431 kts 231°
2026-04-18 13:59 47.33187 -33.16487 35879 ft 430 kts 231°
2026-04-18 13:59 47.29380 -33.23296 35878 ft 430 kts 231°
2026-04-18 14:00 47.25596 -33.30048 35874 ft 430 kts 231°
2026-04-18 14:00 47.21786 -33.36828 35871 ft 430 kts 231°
2026-04-18 14:01 47.17972 -33.43600 35869 ft 430 kts 231°
2026-04-18 14:01 47.14155 -33.50359 35865 ft 430 kts 231°
2026-04-18 14:02 47.10337 -33.57103 35862 ft 429 kts 231°
2026-04-18 14:02 47.06514 -33.63840 35863 ft 429 kts 231°
2026-04-18 14:03 47.02691 -33.70561 35856 ft 429 kts 231°
2026-04-18 14:03 46.98859 -33.77281 35855 ft 429 kts 231°
2026-04-18 14:04 46.95033 -33.83973 35854 ft 429 kts 231°
2026-04-18 14:04 46.91200 -33.90660 35850 ft 429 kts 231°
2026-04-18 14:05 46.87364 -33.97337 35851 ft 429 kts 231°
2026-04-18 14:05 46.83524 -34.04004 35845 ft 429 kts 230°
2026-04-18 14:06 46.79708 -34.10615 35837 ft 429 kts 230°
2026-04-18 14:06 46.75859 -34.17265 35839 ft 429 kts 230°
2026-04-18 14:07 46.72002 -34.23915 35835 ft 429 kts 230°
2026-04-18 14:07 46.68140 -34.30557 35835 ft 430 kts 230°
2026-04-18 14:08 46.62328 -34.40521 35833 ft 431 kts 230°
2026-04-18 14:09 46.58441 -34.47164 35823 ft 431 kts 230°
2026-04-18 14:09 46.54547 -34.53805 35822 ft 432 kts 230°
2026-04-18 14:10 46.50646 -34.60441 35818 ft 432 kts 230°
2026-04-18 14:10 46.46734 -34.67078 35818 ft 433 kts 230°
2026-04-18 14:11 46.42815 -34.73711 35813 ft 433 kts 230°
2026-04-18 14:11 46.38887 -34.80345 35805 ft 433 kts 230°
2026-04-18 14:12 46.34956 -34.86967 35823 ft 433 kts 230°
2026-04-18 14:12 46.31024 -34.93576 35804 ft 433 kts 230°
2026-04-18 14:13 46.27085 -35.00180 35798 ft 433 kts 230°
2026-04-18 14:13 46.23144 -35.06771 35793 ft 433 kts 230°
2026-04-18 14:14 46.19199 -35.13353 35805 ft 433 kts 230°
2026-04-18 14:14 46.15253 -35.19921 35806 ft 433 kts 230°
2026-04-18 14:15 46.11332 -35.26431 35800 ft 433 kts 230°
2026-04-18 14:15 46.07383 -35.32974 35802 ft 432 kts 230°
2026-04-18 14:16 46.03433 -35.39503 35800 ft 432 kts 230°
2026-04-18 14:16 45.99481 -35.46018 35794 ft 432 kts 230°
2026-04-18 14:17 45.95533 -35.52512 35796 ft 431 kts 230°
2026-04-18 14:17 45.89610 -35.62226 35803 ft 431 kts 230°
2026-04-18 14:18 45.83679 -35.71919 35799 ft 431 kts 230°
2026-04-18 14:19 45.77746 -35.81582 35799 ft 430 kts 230°
2026-04-18 14:20 45.71808 -35.91220 35802 ft 430 kts 230°
2026-04-18 14:20 45.67846 -35.97631 35799 ft 430 kts 230°
2026-04-18 14:21 45.63875 -36.04042 35800 ft 430 kts 230°
2026-04-18 14:21 45.59931 -36.10394 35804 ft 430 kts 230°
2026-04-18 14:22 45.53966 -36.19973 35800 ft 430 kts 230°
2026-04-18 14:23 45.47996 -36.29530 35801 ft 430 kts 230°
2026-04-18 14:23 45.42011 -36.39076 35802 ft 431 kts 230°
2026-04-18 14:24 45.36017 -36.48603 35804 ft 431 kts 230°
2026-04-18 14:25 45.32015 -36.54946 35804 ft 431 kts 230°
2026-04-18 14:25 45.28008 -36.61283 35806 ft 431 kts 230°
2026-04-18 14:26 45.23995 -36.67615 35807 ft 432 kts 230°
2026-04-18 14:26 45.20000 -36.73903 35804 ft 432 kts 230°
2026-04-18 14:27 45.15973 -36.80228 35807 ft 432 kts 230°
2026-04-18 14:27 45.11943 -36.86543 35813 ft 432 kts 230°
2026-04-18 14:28 45.07905 -36.92855 35809 ft 433 kts 230°
2026-04-18 14:28 45.03861 -36.99164 35817 ft 433 kts 230°
2026-04-18 14:29 44.99811 -37.05467 35819 ft 433 kts 230°
2026-04-18 14:29 44.95754 -37.11768 35825 ft 434 kts 230°
2026-04-18 14:30 44.91690 -37.18063 35825 ft 434 kts 230°
2026-04-18 14:30 44.87623 -37.24350 35829 ft 434 kts 230°
2026-04-18 14:31 44.83550 -37.30631 35830 ft 434 kts 230°
2026-04-18 14:31 44.79475 -37.36902 35831 ft 434 kts 230°
2026-04-18 14:32 44.75395 -37.43167 35830 ft 434 kts 230°
2026-04-18 14:32 44.71309 -37.49426 35837 ft 435 kts 230°
2026-04-18 14:33 44.67213 -37.55687 35851 ft 435 kts 230°
2026-04-18 14:33 44.63108 -37.61947 35858 ft 436 kts 230°
2026-04-18 14:34 44.58995 -37.68205 35853 ft 436 kts 230°
2026-04-18 14:34 44.54872 -37.74465 35854 ft 437 kts 230°
2026-04-18 14:35 44.50750 -37.80709 35845 ft 437 kts 230°
2026-04-18 14:35 44.46621 -37.86950 35835 ft 437 kts 230°
2026-04-18 14:36 44.42516 -37.93139 35851 ft 437 kts 230°
2026-04-18 14:36 44.38382 -37.99360 35850 ft 437 kts 230°
2026-04-18 14:37 44.34237 -38.05583 35854 ft 437 kts 230°
2026-04-18 14:37 44.30091 -38.11793 35858 ft 437 kts 230°
2026-04-18 14:38 44.25937 -38.18003 35855 ft 438 kts 230°
2026-04-18 14:38 44.21778 -38.24205 35862 ft 438 kts 230°
2026-04-18 14:39 44.17611 -38.30406 35866 ft 439 kts 230°
2026-04-18 14:39 44.13431 -38.36612 35862 ft 439 kts 230°
2026-04-18 14:40 44.09247 -38.42810 35865 ft 439 kts 230°
2026-04-18 14:40 44.05060 -38.49000 35874 ft 439 kts 230°
2026-04-18 14:41 44.00862 -38.55191 35874 ft 440 kts 230°
2026-04-18 14:41 43.96660 -38.61375 35870 ft 440 kts 230°
2026-04-18 14:42 43.92455 -38.67550 35879 ft 440 kts 230°
2026-04-18 14:42 43.88243 -38.73720 35887 ft 441 kts 230°
2026-04-18 14:43 43.84024 -38.79890 35881 ft 441 kts 230°
2026-04-18 14:43 43.79830 -38.86007 35889 ft 441 kts 230°
2026-04-18 14:44 43.76286 -38.91167 35889 ft 441 kts 230°
2026-04-18 14:44 43.71363 -38.98318 35895 ft 442 kts 231°
2026-04-18 14:45 43.67808 -39.03471 35899 ft 442 kts 230°
2026-04-18 14:45 43.63561 -39.09614 35901 ft 442 kts 231°
2026-04-18 14:46 43.59305 -39.15757 35902 ft 443 kts 231°
2026-04-18 14:46 43.55071 -39.21855 35906 ft 443 kts 231°
2026-04-18 14:47 43.50801 -39.27991 35908 ft 444 kts 231°
2026-04-18 14:47 43.46518 -39.34134 35913 ft 444 kts 231°
2026-04-18 14:48 43.42232 -39.40266 35917 ft 445 kts 231°
2026-04-18 14:48 43.37942 -39.46391 35924 ft 445 kts 231°
2026-04-18 14:49 43.33644 -39.52515 35925 ft 445 kts 231°
2026-04-18 14:49 43.29339 -39.58634 35925 ft 446 kts 231°
2026-04-18 14:50 43.25024 -39.64755 35929 ft 446 kts 231°
2026-04-18 14:50 43.20708 -39.70864 35930 ft 446 kts 231°
2026-04-18 14:51 43.16413 -39.76931 35935 ft 446 kts 231°
2026-04-18 14:51 43.12085 -39.83030 35940 ft 447 kts 231°
2026-04-18 14:52 43.07749 -39.89129 35943 ft 447 kts 231°
2026-04-18 14:52 43.03378 -39.95266 35942 ft 448 kts 231°
2026-04-18 14:53 42.99048 -40.01314 35959 ft 449 kts 230°
2026-04-18 14:53 42.94583 -40.07283 35960 ft 450 kts 229°
2026-04-18 14:54 42.90073 -40.13212 35962 ft 450 kts 229°
2026-04-18 14:54 42.85571 -40.19138 35960 ft 450 kts 229°
2026-04-18 14:55 42.81073 -40.25069 35964 ft 450 kts 230°
2026-04-18 14:55 42.76575 -40.30996 35966 ft 450 kts 229°
2026-04-18 14:56 42.72074 -40.36917 35970 ft 450 kts 230°
2026-04-18 14:56 42.67573 -40.42827 35972 ft 450 kts 230°
2026-04-18 14:57 42.63070 -40.48725 35975 ft 450 kts 230°
2026-04-18 14:57 42.58561 -40.54617 35984 ft 450 kts 230°
2026-04-18 14:58 42.54050 -40.60500 35981 ft 450 kts 230°
2026-04-18 14:58 42.49533 -40.66379 35987 ft 450 kts 230°
2026-04-18 14:59 42.45047 -40.72204 35984 ft 450 kts 229°
2026-04-18 14:59 42.40523 -40.78058 35984 ft 450 kts 230°
2026-04-18 15:00 42.36002 -40.83903 35987 ft 449 kts 230°
2026-04-18 15:00 42.31483 -40.89738 36000 ft 449 kts 230°
2026-04-18 15:01 42.26958 -40.95567 36003 ft 449 kts 230°
2026-04-18 15:01 42.22436 -41.01381 35994 ft 449 kts 230°
2026-04-18 15:02 42.17908 -41.07188 35998 ft 449 kts 230°
2026-04-18 15:02 42.13376 -41.12989 36009 ft 449 kts 230°
2026-04-18 15:03 42.08843 -41.18779 36009 ft 449 kts 230°
2026-04-18 15:03 42.04308 -41.24563 36010 ft 449 kts 230°
2026-04-18 15:04 41.99771 -41.30339 36012 ft 449 kts 230°
2026-04-18 15:04 41.95229 -41.36102 36022 ft 449 kts 230°
2026-04-18 15:05 41.90681 -41.41860 36016 ft 449 kts 230°
2026-04-18 15:05 41.86132 -41.47609 36021 ft 450 kts 230°
2026-04-18 15:06 41.81569 -41.53364 36023 ft 450 kts 230°
2026-04-18 15:06 41.77007 -41.59106 36022 ft 450 kts 230°
2026-04-18 15:07 41.72439 -41.64844 36025 ft 450 kts 230°
2026-04-18 15:07 41.67866 -41.70577 36022 ft 450 kts 229°
2026-04-18 15:08 41.63289 -41.76303 36026 ft 450 kts 229°
2026-04-18 15:08 41.58734 -41.81981 36032 ft 450 kts 229°
2026-04-18 15:09 41.54153 -41.87689 36034 ft 450 kts 229°
2026-04-18 15:09 41.49566 -41.93395 36032 ft 451 kts 229°
2026-04-18 15:10 41.44977 -41.99092 36037 ft 451 kts 229°
2026-04-18 15:10 41.40387 -42.04778 36038 ft 451 kts 229°
2026-04-18 15:11 41.35791 -42.10460 36038 ft 451 kts 230°
2026-04-18 15:11 41.31196 -42.16129 36052 ft 451 kts 229°
2026-04-18 15:12 41.26593 -42.21795 36045 ft 451 kts 230°
2026-04-18 15:12 41.21989 -42.27451 36041 ft 451 kts 230°
2026-04-18 15:13 41.17381 -42.33101 36048 ft 451 kts 230°
2026-04-18 15:13 41.12805 -42.38700 36046 ft 451 kts 230°
2026-04-18 15:14 41.08193 -42.44333 36048 ft 451 kts 229°
2026-04-18 15:14 41.03581 -42.49954 36051 ft 451 kts 229°
2026-04-18 15:15 40.96652 -42.58378 36055 ft 451 kts 229°
2026-04-18 15:15 40.92033 -42.63980 36052 ft 451 kts 229°
2026-04-18 15:16 40.87406 -42.69579 36051 ft 451 kts 229°
2026-04-18 15:16 40.82774 -42.75174 36061 ft 451 kts 229°
2026-04-18 15:17 40.78136 -42.80767 36061 ft 451 kts 229°
2026-04-18 15:17 40.73502 -42.86349 36063 ft 451 kts 229°
2026-04-18 15:18 40.68863 -42.91920 36061 ft 451 kts 229°
2026-04-18 15:18 40.64216 -42.97487 36072 ft 452 kts 229°
2026-04-18 15:19 40.59562 -43.03051 36071 ft 452 kts 229°
2026-04-18 15:19 40.54908 -43.08606 36071 ft 452 kts 229°
2026-04-18 15:20 40.50242 -43.14164 36073 ft 453 kts 229°
2026-04-18 15:20 40.45602 -43.19680 36076 ft 453 kts 229°
2026-04-18 15:21 40.40925 -43.25230 36080 ft 453 kts 229°
2026-04-18 15:21 40.36247 -43.30770 36077 ft 453 kts 229°
2026-04-18 15:22 40.31562 -43.36307 36077 ft 454 kts 229°
2026-04-18 15:22 40.26874 -43.41839 36078 ft 454 kts 229°
2026-04-18 15:23 40.22182 -43.47363 36082 ft 454 kts 229°
2026-04-18 15:23 40.17480 -43.52889 36097 ft 454 kts 229°
2026-04-18 15:24 40.12773 -43.58409 36097 ft 455 kts 229°
2026-04-18 15:24 40.08063 -43.63923 36083 ft 455 kts 229°
2026-04-18 15:25 40.03342 -43.69438 36088 ft 455 kts 228°
2026-04-18 15:25 39.98621 -43.74943 36092 ft 455 kts 228°
2026-04-18 15:26 39.93897 -43.80442 36093 ft 455 kts 228°